Overview Statistics Trail Chart Weather Telemetry Raw packets
 

This is the latest recevied weather packets stored in our database for station/object W4UWO. If no packets are shown the sender has not sent any weather packets the latest 10 day(s).

<< 9 10 11 12 13 14 15 >>
Time Temp. Humidity Pressure Rain* Wind** Luminosity Snow
1788557655 36.11° C 41% 1014.9 hPa 0 mm - 114 W/m² -
1788557351 36.67° C 40% 1014.8 hPa 0 mm - 61 W/m² -
1788557050 37.78° C 38% 1014.6 hPa 0 mm - 100 W/m² -
1788556746 37.78° C 38% 1014.8 hPa 0 mm - 415 W/m² -
1788556441 37.78° C 38% 1014.7 hPa 0 mm - 434 W/m² -
1788556136 37.78° C 38% 1015.2 hPa 0 mm - 445 W/m² -
1788555835 37.78° C 40% 1014.9 hPa 0 mm - 457 W/m² -
1788555532 37.78° C 39% 1015 hPa 0 mm - 472 W/m² -
1788555227 37.22° C 39% 1015.1 hPa 0 mm - 479 W/m² -
1788554924 37.78° C 38% 1015.1 hPa 0 mm - 502 W/m² -
1788554619 37.78° C 36% 1015 hPa 0 mm - 506 W/m² -
1788554315 37.78° C 37% 1015.2 hPa 0 mm - 534 W/m² -
1788554012 37.78° C 37% 1015.5 hPa 0 mm - 545 W/m² -
1788553707 37.78° C 40% 1015.4 hPa 0 mm - 559 W/m² -
1788553403 37.22° C 41% 1015.5 hPa 0 mm - 575 W/m² -
1788553099 36.67° C 42% 1015.5 hPa 0 mm - 586 W/m² -
1788552793 36.67° C 41% 1015.7 hPa 0 mm - 608 W/m² -
1788552489 36.67° C 42% 1015.7 hPa 0 mm - 612 W/m² -
1788552187 37.22° C 41% 1015.6 hPa 0 mm - 635 W/m² -
1788551887 36.67° C 43% 1016 hPa 0 mm - 640 W/m² -
1788551586 36.11° C 41% 1016 hPa 0 mm - 678 W/m² -
1788551281 35° C 43% 1016.1 hPa 0 mm - 683 W/m² -
1788550980 35° C 42% 1016.4 hPa 0 mm - 321 W/m² -
1788550675 36.11° C 41% 1016 hPa 0 mm - 178 W/m² -
1788550371 36.67° C 41% 1016.2 hPa 0 mm - 212 W/m² -

* Rain latest hour (hover to see other rain measurements)
** Current wind speed in m/s (hover to see current wind gust speed)